[Date Prev][Date Next][Thread Prev][Thread Next] - [Date Index][Thread Index][Author Index]
2 Line ISS Keps 10-1
- Subject: [sarex] 2 Line ISS Keps 10-1
- From: "Dave Larsen PhD" <doc@xxxxxxxxxxx>
- Date: Sat, 1 Oct 2005 06:27:46 -0700
ISS
1 25544U 98067A 05274.01359954 .00015482 00000-0 11260-3 0 4622
2 25544 051.6432 078.9017 0001693 093.3024 042.9442 15.73563454392333
----
Via the sarex mailing list at AMSAT.ORG courtesy of AMSAT-NA.
To unsubscribe, send "unsubscribe sarex" to Majordomo@amsat.org
AMSAT Home